Regional Weather Roundup
Issued by NWS Pendleton, OR

Home | Current Version | Previous Version | Text Only | Print | Product List | Glossary On
Versions: 1 2 3 4 5 6 7 8 9 10 11 12 13 14 15 16 17 18 19 20 21 22 23 24 25 26 27 28 29 30 31 32 33 34 35 36 37 38 39 40 41 42 43 44 45 46 47 48 49 50
000
ASUS46 KPDT 231210
RWRPDT
PENDLETON REGIONAL WEATHER ROUNDUP
NATIONAL WEATHER SERVICE PENDLETON OREGON
500 AM PDT SAT AUG 23 2014

NOTE: FAIR INDICATES FEW OR NO CLOUDS BELOW 12,000 FEET WITH NO
SIGNIFICANT WEATHER AND/OR OBSTRUCTIONS TO VISIBILITY.

# INDICATES UNOFFICIAL STATION AND DATA

WAZ520-231310-
EAST SLOPES OF WASHINGTON CASCADES

CITY            SKY/WX      TMP DP  RH  WIND    PRES   REMARKS
#CLE ELUM HS    N/A         46  45  96  CALM    30.09S
#CLE ELUM 2NW   N/A         46  45  96  CALM    N/A
#CLE ELUM LAKE  N/A         50  47  89  E1      30.07S
#CLIFFDEL 2NW   N/A         47  46  96  CALM    N/A
#GLENWOOD       N/A         44  43  96  CALM    30.09R
#NELSON         N/A         46  45  96  CALM    30.13R
#NELSON 3SW     N/A         47  46  96  CALM    30.29R
#NILE           N/A         47  46  96  CALM    29.40S
#PEOH POINT     N/A         54  46  74  S1      N/A
#TEANAWAY 4NE   N/A         45  45  100 CALM    N/A
#TROUT LAKE 1NE N/A         46  45  96  CALM    30.10R
$$

WAZ521-231310-
SIMCOE HIGHLANDS

CITY            SKY/WX      TMP DP  RH  WIND    PRES   REMARKS
#BICKLETON HS   N/A         58  40  51  N12     30.15S
#SATUS PASS DOT N/A         53  42  66  CALM    N/A
#CENTERVILLE 4W N/A         56  46  69  NW2     29.86S
#GOLDENDALE     N/A         54  47  77  CALM    N/A
#GOLDENDALE 1NE N/A         51  45  80  E3      N/A
#GOLDENDALE 1S  N/A         53  47  80  CALM    30.07S
#GOLDENDALE 5WNWN/A         N/A N/A N/A CALM    30.06R
#GOODNOE HILLS  N/A         61  48  62  NW7     30.02R
#LYLE 6NE       N/A         56  51  83  CALM    30.03R
$$

WAZ026-231310-
KITTITAS VALLEY

CITY            SKY/WX      TMP DP  RH  WIND    PRES   REMARKS
ELLENSBURG AP   CLEAR       53  48  83  N5      30.13R
6HR MIN TEMP:   52; 6HR MAX TEMP:   63;

#ELLENSBURG CWU N/A         51  48  89  CALM    30.04R
#ELLENSBURG 3NE N/A         50  48  93  CALM    30.13R
#ELLENSBURG     N/A         54  54  100 CALM    N/A
#ELLENSBURG 1E  N/A         51  46  83  CALM    N/A
#KITTITAS 3S    N/A         51  49  93  CALM    30.06S
#THORP 6N       N/A         52  49  89  N3      30.10R
$$

WAZ027-231310-
YAKIMA VALLEY

CITY            SKY/WX      TMP DP  RH  WIND    PRES   REMARKS
SUNNYSIDE AP    CLEAR       63  50  62  N6      30.08R
YAKIMA AIRPORT  CLEAR       57  51  80  W7      30.11R
6HR MIN TEMP:   56; 6HR MAX TEMP:   67;

YAKIMA-VAGABOND CLEAR       58  48  69  VRB1    30.13R
#COWICHE 1N     N/A         58  48  69  NW7     30.28R
#DONALD 2NE     N/A         60  49  67  SW1     30.42R
#GRANDVIEW      N/A         61  50  67  CALM    30.07R
#MABTON         N/A         61  53  75  CALM    30.08R
#MOXEE 2E       N/A         59  45  60  NW6     30.04R
#NACHES 2SW     N/A         58  49  72  W8      30.12S
#TERRACE HTS    N/A         57  50  77  CALM    30.03R
#TOPPENISH      N/A         61  51  70  W1      29.99R
#WAPATO 4NE     N/A         60  49  67  SW1     30.42R
#WEST VALLEY    N/A         59  50  72  CALM    30.05S
#W YAKIMA       N/A         60  50  69  W3      30.07R
#WHITE SWAN 5E  N/A         53  49  86  CALM    30.09R
#WILEY CITY 3W  N/A         70  64  81  CALM    30.10S
$$

WAZ028-231310-
LOWER COLUMBIA BASIN...WASHINGTON

CITY            SKY/WX      TMP DP  RH  WIND    PRES   REMARKS
PASCO           CLEAR       58  53  83  N8      30.06R
6HR MIN TEMP:   55; 6HR MAX TEMP:   70;

PROSSER AWOS    N/A         59  52  78  S2      30.11R
RICHLAND AWOS   CLEAR       61  52  72  N5      30.07R
#BASIN CITY 5SW N/A         59  52  78  N5      30.07R
#BENTON CITY    N/A         66  50  56  NW3     29.95S
#CONNELL 5N     N/A         55  48  77  CALM    30.03R
#CONNELL 5NW    N/A         53  47  80  CALM    30.01R
#ELTOPIA        N/A         58  51  77  N6      30.00S
#ELTOPIA 6NW    N/A         57  52  83  N6      29.03S
#KENNEWICK 3S   N/A         58  53  83  CALM    30.04R
#PATERSON       N/A         64  51  63  N7      30.03S
#PROSSER        N/A         62  50  65  W2      30.05R
#SAGEMOOR 2W    N/A         58  52  80  N3      29.89S
#TOUCHET 2S     N/A         58  51  77  NW1     30.01S
#WEST PASCO     N/A         62  51  67  N2      30.05R
$$

WAZ029-231310-
FOOTHILLS OF THE BLUES...WASHINGTON

CITY            SKY/WX      TMP DP  RH  WIND    PRES   REMARKS
WALLA WALLA AP  CLEAR       57  50  77  SE3     30.07R
6HR MIN TEMP:   56; 6HR MAX TEMP:   68;

#COLLEGE PLACE  N/A         60  50  69  S1      30.05R
#DAYTON SCHOOL  N/A         54  42  64  CALM    30.05R
#LOWDEN 2SE     N/A         52  49  89  CALM    30.02R
#PLEASANT VIEW 1N/A         56  52  86  CALM    30.06R
#PRESCOTT       N/A         51  47  86  CALM    30.02R
#SUDBURY        N/A         51  N/A N/A CALM    N/A
#WHITMAN COLLEGEN/A         58  52  80  S1      30.08R
#WAITSBURG 8N   N/A         52  41  66  CALM    30.00R
#WALLA WALLA 5E N/A         74  47  38  E15     N/A
#WALLA WALLA U  N/A         58  53  83  CALM    30.03R
$$

WAZ030-231310-
BLUE MOUNTAINS...WASHINGTON

CITY            SKY/WX      TMP DP  RH  WIND    PRES   REMARKS
$$

ORZ009-041-WAZ024-231310-
COLUMBIA RIVER GORGE

CITY            SKY/WX      TMP DP  RH  WIND    PRES   REMARKS
HOOD RIVER AP   CLEAR       54  50  86  CALM    30.11R
THE DALLES AP   CLEAR       61  54  78  NW6     30.08R
6HR MIN TEMP:   60; 6HR MAX TEMP:   71;

#ARLINGTON AIRPON/A         62  48  60  SE5     N/A
#ARLINGTON HS   N/A         62  48  60  CALM    29.95R
#MARYHILL       N/A         61  53  75  E1      N/A
#MARYHILL 2W    N/A         63  55  75  NW2     N/A
#MOSIER 1S      N/A         57  47  69  CALM    30.15S
#MURDOCK        N/A         63  57  81  W10     30.09R

$$

ORZ510-231310-
NORTH CENTRAL OREGON

CITY            SKY/WX      TMP DP  RH  WIND    PRES   REMARKS
#CHENOWITH 1W   N/A         56  50  80  NW8     N/A
#COW CYN RST AREN/A         57  48  72  N2      N/A
#GRASS VALLEY   N/A         48  46  93  S1      N/A
#GRASS VALLEY 1SN/A         53  47  80  CALM    30.06R
#KENT DOT       N/A         55  46  72  W3      N/A
#MAUPIN SCHOOL  N/A         57  46  67  CALM    28.97S
#MORO SCHOOL    N/A         53  50  89  CALM    30.11R
#SHANIKO 5WSW   N/A         54  44  69  N3      N/A
#SHANIKO 4NW    N/A         54  47  77  VRB6    30.15S
#TYGH VALLEY 2NEN/A         54  47  77  CALM    30.06R
#WAPANITIA AIRPON/A         54  48  80  CALM    30.07R
#WASCO DOT      N/A         51  49  93  E1      N/A
#WASCO 5NE      N/A         54  50  86  CALM    30.04R
$$

ORZ511-231310-
CENTRAL OREGON

CITY            SKY/WX      TMP DP  RH  WIND    PRES   REMARKS
BEND AIRPORT    CLEAR       46  41  83  CALM    30.17R
MADRAS AIRPORT  CLEAR       50  45  83  SE6     30.15R
REDMOND AIRPORT CLEAR       45  40  82  S3      30.14S
6HR MIN TEMP:   45; 6HR MAX TEMP:   61;

#BEND 6E        N/A         48  41  77  CALM    30.00R
#BEND-AWBREY    N/A         52  45  77  CALM    30.05S
#BEND-KIM LN    N/A         48  45  89  CALM    30.13S
#CROOKED RVR RANN/A         51  46  83  N16     30.05R
#CULVER         N/A         49  44  83  CALM    30.11R
#LAKE BILLY CHINN/A         52  32  46  CALM    30.17S
#POWELL BUTTE 3EN/A         47  42  83  E1      N/A
#POWELL BUTTE   N/A         54  45  71  W2      29.77S
#PRINEVILLE 3N  N/A         47  42  83  CALM    30.02R
#WARM SPRINGS   N/A         53  44  71  CALM    30.09R


ORZ509-231310-
EAST SLOPES OF OREGON CASCADES

CITY            SKY/WX      TMP DP  RH  WIND    PRES   REMARKS
#BLUE BOX PASS  N/A         52  N/A N/A N2      N/A
#BLACK BUTTE RNCN/A         44  42  93  CALM    30.08R
#CAMP SHERMAN   N/A         39  37  92  CALM    30.12R
#LA PINE DOT    N/A         39  37  92  CALM    N/A
#LA PINE 4NW    N/A         36  33  89  CALM    30.13R
#LAVA BUTTE DOT N/A         42  40  93  E15     N/A    WCI 34
#SISTERS AIRPOR N/A         42  42  100 CALM    30.13R
#SISTERS ODOT   N/A         41  N/A N/A CALM    N/A
#SISTERS 3N     N/A         40  36  85  CALM    N/A
#SUNRIVER       N/A         42  40  93  CALM    29.96R
#SUTTLE LK DOT  N/A         40  40  100 E7      N/A
#TUMALO 3W      N/A         55  45  69  W2      29.94S
#WANOGA BUTTE D N/A         44  41  89  CALM    N/A

$$

ORZ044-231310-
LOWER COLUMBIA BASIN...OREGON

CITY            SKY/WX      TMP DP  RH  WIND    PRES   REMARKS
HERMISTON       CLEAR       58  50  75  SW5     30.06R
6HR MIN TEMP:   58; 6HR MAX TEMP:   72;

#BOARDMAN SCHOOLN/A         56  49  77  CALM    30.06R
#BOARDMAN 3W    N/A         58  51  77  CALM    29.76S
#BOARDMAN 8SW   N/A         59  51  75  N1      30.05R
#ECHO 8SW       N/A         54  47  77  SW3     30.04S
#IONE SCHOOL    N/A         54  42  64  CALM    30.08R
#IRRIGON 4NW    N/A         59  53  80  W3      N/A
#UMATILLA SCHOOLN/A         64  57  78  CALM    30.10R
#UMATILLA       N/A         66  49  54  CALM    30.03S
$$

ORZ507-231310-
NORTHERN FOOTHILLS OF THE BLUES

CITY            SKY/WX      TMP DP  RH  WIND    PRES   REMARKS
PENDLETON AIRPT CLEAR       53  45  74  S5      30.07R
6HR MIN TEMP:   52; 6HR MAX TEMP:   62;

#ADAMS 3WNW     N/A         47  41  79  CALM    30.03R
#ATHENA         N/A         50  45  83  CALM    30.04R
#HELIX SCHOOL   N/A         49  43  80  CALM    30.02R
#HELIX 3N       N/A         52  45  77  S6      30.04R
#HOLDMAN 5SE    N/A         50  44  80  E2      30.07R
#HOLDMAN 6E     N/A         52  47  83  CALM    29.84R
#M-F GROVE ELEM N/A         57  47  69  CALM    30.04R
#M-FREEWATER 5SEN/A         57  48  72  CALM    30.05R
#PDT AQUATIC CTRN/A         55  44  66  CALM    30.04S
#PENDLETON DNTN N/A         55  42  61  CALM    30.04R
#PDT SUNRIDGE   N/A         53  47  80  CALM    30.08R
#PENDLETON 7NW  N/A         49  40  71  CALM    26.74F
#PILOT ROCK     N/A         55  46  72  CALM    30.10R
#TUTUILLA       N/A         54  49  83  CALM    29.98R
#UMAPINE 2E     N/A         55  51  86  CALM    30.03R
#WESTON SCHOOL  N/A         55  45  69  CALM    30.03R

$$

ORZ508-231310-
SOUTHERN FOOTHILLS OF THE BLUES

CITY            SKY/WX      TMP DP  RH  WIND    PRES   REMARKS
LEXINGTON       CLEAR       55  48  77  E8      30.12R
#AJAX           N/A         60  44  55  CALM    30.04R
#CONDON SCHOOL  N/A         54  47  77  CALM    30.09R
#CONDON 5W      N/A         55  45  69  N5      30.11R
#FOSSIL SCHOOL  N/A         48  43  83  CALM    30.10R
#HEPPNER 4NE    N/A         51  46  83  CALM    30.03R
#LEXINGTON 2SE  N/A         54  49  83  SE5     30.07R
#MIKKALO        N/A         53  43  69  E2      30.10R
#OLEX 4N        N/A         57  50  77  CALM    30.07R
#RUGGS 5NE      N/A         51  47  86  CALM    30.30R
#RUGGS 2SW      N/A         55  48  77  SW2     30.09R

$$

ORZ502-503-231310-
BLUE MOUNTAINS

CITY            SKY/WX      TMP DP  RH  WIND    PRES   REMARKS
MEACHAM         CLEAR       41  39  93  CALM    30.12S
6HR MIN TEMP:   41; 6HR MAX TEMP:   48;

#BATTLE MTN DOT N/A         47  48  100 CALM    N/A
#HARDMAN 10S    N/A         48  45  89  CALM    30.19R
#HEPPNER 15SE   N/A         44  42  93  CALM    30.07R
#LADD CYN SMT   N/A         49  42  77  NW6     N/A
#LADD CREEK ODOTN/A         46  46  100 S2      N/A
#LONG CREEK HS  N/A         46  46  100 CALM    N/A
#N POWDER DOT   N/A         48  46  93  CALM    N/A
#PIKES PEAK     N/A         56  46  69  S7      27.99S
#TOLLGATE       N/A         46  42  86  CALM    30.06R
#TOLLGATE 9W    N/A         47  46  96  E1      N/A
#TROY SCHOOL    N/A         55  53  93  CALM    29.89S
#UKIAH          N/A         43  41  93  CALM    30.10R
#WESTON 4E      N/A         52  45  77  SE2     29.96R
$$

ORZ505-231310-
JOHN DAY BASIN

CITY            SKY/WX      TMP DP  RH  WIND    PRES   REMARKS
JOHN DAY        CLEAR       54  45  71  W5      30.13R
#JOHN DAY KJDY  N/A         53  47  80  CALM    30.17F
#MONUMENT HS    N/A         51  46  83  CALM    30.11R
#MT. VERNON 5SE N/A         51  43  74  CALM    30.09R
#WINLOCK        N/A         50  47  89  CALM    30.20R
$$

ORZ506-231310-
OCHOCO AND JOHN DAY HIGHLANDS

CITY            SKY/WX      TMP DP  RH  WIND    PRES   REMARKS
#BUCK CREEK DOT N/A         50  45  83  NW5     N/A
#HORSE RIDGE DO N/A         33  30  89  CALM    N/A
#KEYES SMT DOT  N/A         48  44  86  W3      N/A
#PAULINA SCHOOL N/A         50  42  74  CALM    30.11S
#PRAIRIE CITY   N/A         41  38  89  E2      30.22R
#SENECA 9NW     N/A         44  40  86  CALM    29.99R
$$

ORZ049-231310-
GRANDE RONDE VALLEY

CITY            SKY/WX      TMP DP  RH  WIND    PRES   REMARKS
LA GRANDE       PTCLDY      55  39  55  NW13    30.08R
#COVE           N/A         49  48  96  CALM    30.01R
#COVE SCHOOL    N/A         49  46  89  CALM    30.06S
#COVE 6NW       N/A         48  44  86  CALM    30.08R
#ELGIN 3N       N/A         49  44  83  CALM    29.82S
#ELGIN 1E       N/A         50  46  86  CALM    N/A
#IMBLER SCHOOL  N/A         51  46  83  N6      30.05R
#ISLAND CITY 4N N/A         47  43  86  CALM    29.96S
#LADD CYN DOT   N/A         50  46  86  SE5     N/A
#LA GRANDE ELEM N/A         56  46  69  W9      30.07R
#UNION 1S       N/A         47  45  93  CALM    29.94R
$$

ORZ050-231310-
WALLOWA COUNTY

CITY            SKY/WX      TMP DP  RH  WIND    PRES   REMARKS
#ENTERPRISE AP  N/A         45  42  89  E1      30.05R
#ENTERPRISE HS  N/A         44  42  93  CALM    30.12R
#IMNAHA SCHOOL  N/A         50  47  89  CALM    30.08S
#IMNAHA 10S     N/A         46  44  93  S2      30.10S
#JOSEPH 3N      N/A         43  40  89  CALM    30.13R
#JOSEPH 3W      N/A         46  45  96  CALM    29.95S
#MT HOWARD 8000 N/A         37  36  96  NW2     30.18F
#PROMISE 1S     N/A         49  48  96  CALM    30.14R
#SHEEP RDG 7000 N/A         41  38  89  CALM    30.03S
#WALLOWA SCHOOL N/A         50  49  96  CALM    30.96S



$$



USA.gov is the U.S. government's official web portal to all federal, state and local government web resources and services.